• In Czech Republic
  • List of Countries
  • For 7 days
  • Water Temperature
  • Satellite Maps
  • Weather Map
  • Weather Widgets
  • user-avatar
    Login

    Hourly Weather Jewłach

    Today, 23 February, Friday

    Time Temperature Precipitation Wind Pressure Humidity
    00:00 +9°C° 0 mm 1 mps 760 mmHg 82%
    01:00 +9°C° 0 mm 1 mps 760 mmHg 84%
    02:00 +8°C° 0 mm 1 mps 760 mmHg 86%
    03:00 +8°C° 0 mm 1 mps 760 mmHg 88%
    04:00 +8°C° 0 mm 1 mps 760 mmHg 88%
    05:00 +8°C° 0 mm 1 mps 760 mmHg 89%
    06:00 +7°C° 0 mm 1 mps 761 mmHg 89%
    07:00 +8°C° 0 mm 1 mps 760 mmHg 86%
    08:00 +9°C° 0 mm 1 mps 760 mmHg 83%
    09:00 +10°C° 0 mm 1 mps 760 mmHg 80%
    10:00 +10°C° 0 mm 2 mps 760 mmHg 78%
    11:00 +10°C° 0 mm 2 mps 760 mmHg 75%
    12:00 +12°C° 0 mm 2 mps 760 mmHg 72%
    13:00 +12°C° 0 mm 2 mps 759 mmHg 69%
    14:00 +13°C° 0 mm 2 mps 759 mmHg 67%
    15:00 +13°C° 0 mm 2 mps 759 mmHg 68%
    16:00 +12°C° 0 mm 2 mps 759 mmHg 71%
    17:00 +12°C° 0 mm 2 mps 759 mmHg 73%
    18:00 +11°C° 0 mm 1 mps 759 mmHg 76%
    19:00 +11°C° 0 mm 1 mps 759 mmHg 79%
    20:00 +10°C° 0 mm 1 mps 759 mmHg 81%
    21:00 +10°C° 0 mm 1 mps 759 mmHg 83%
    22:00 +10°C° 0 mm 1 mps 759 mmHg 84%
    23:00 +9°C° 0 mm 1 mps 759 mmHg 85%

    Tomorrow, 24 February, Saturday

    Time Temperature Precipitation Wind Pressure Humidity
    00:00 +8°C° 0 mm 0 mps 759 mmHg 87%
    01:00 +9°C° 0 mm 1 mps 759 mmHg 87%
    02:00 +8°C° 0 mm 1 mps 758 mmHg 87%
    03:00 +8°C° 0 mm 1 mps 758 mmHg 87%
    04:00 +8°C° 0 mm 1 mps 758 mmHg 86%
    05:00 +8°C° 0 mm 1 mps 758 mmHg 84%
    06:00 +7°C° 0 mm 2 mps 758 mmHg 83%
    07:00 +8°C° 0 mm 2 mps 757 mmHg 76%
    08:00 +9°C° 0 mm 2 mps 757 mmHg 70%
    09:00 +10°C° 0 mm 2 mps 757 mmHg 63%
    10:00 +13°C° 0 mm 2 mps 757 mmHg 57%
    11:00 +14°C° 0 mm 2 mps 756 mmHg 51%
    12:00 +14°C° 0 mm 3 mps 756 mmHg 46%
    13:00 +16°C° 0 mm 2 mps 756 mmHg 44%
    14:00 +16°C° 0 mm 2 mps 755 mmHg 41%
    15:00 +17°C° 0 mm 2 mps 755 mmHg 39%
    16:00 +16°C° 0 mm 1 mps 755 mmHg 43%
    17:00 +15°C° 0 mm 1 mps 756 mmHg 47%
    18:00 +14°C° 0 mm 1 mps 756 mmHg 51%
    19:00 +13°C° 0 mm 1 mps 757 mmHg 53%
    20:00 +13°C° 0 mm 2 mps 757 mmHg 56%
    21:00 +12°C° 0 mm 2 mps 757 mmHg 58%
    22:00 +12°C° 0 mm 2 mps 757 mmHg 59%
    23:00 +10°C° 0 mm 2 mps 757 mmHg 61%

    Day after tomorrow, 25 February, Sunday

    Time Temperature Precipitation Wind Pressure Humidity
    00:00 +10°C° 0 mm 2 mps 757 mmHg 62%
    01:00 +10°C° 0 mm 1 mps 757 mmHg 63%
    02:00 +10°C° 0 mm 1 mps 757 mmHg 64%
    03:00 +9°C° 0 mm 1 mps 757 mmHg 65%
    04:00 +9°C° 0 mm 1 mps 757 mmHg 65%
    05:00 +9°C° 0 mm 1 mps 757 mmHg 65%
    06:00 +8°C° 0 mm 0 mps 757 mmHg 66%
    07:00 +10°C° 0 mm 1 mps 757 mmHg 61%
    08:00 +11°C° 0 mm 1 mps 757 mmHg 56%
    09:00 +12°C° 0 mm 1 mps 756 mmHg 51%
    10:00 +13°C° 0 mm 1 mps 756 mmHg 46%
    11:00 +14°C° 0 mm 1 mps 756 mmHg 42%
    12:00 +15°C° 0 mm 2 mps 755 mmHg 37%
    13:00 +16°C° 0 mm 2 mps 755 mmHg 36%
    14:00 +16°C° 0 mm 2 mps 754 mmHg 34%
    15:00 +17°C° 0 mm 2 mps 754 mmHg 33%
    16:00 +16°C° 0 mm 1 mps 754 mmHg 37%
    17:00 +15°C° 0 mm 1 mps 754 mmHg 40%
    18:00 +14°C° 0 mm 1 mps 754 mmHg 44%
    19:00 +14°C° 0 mm 1 mps 754 mmHg 46%
    20:00 +13°C° 0 mm 1 mps 755 mmHg 48%
    21:00 +13°C° 0 mm 1 mps 755 mmHg 50%
    22:00 +12°C° 0 mm 1 mps 755 mmHg 50%
    23:00 +12°C° 0 mm 1 mps 755 mmHg 49%

    26 February, Monday

    Time Temperature Precipitation Wind Pressure Humidity
    00:00 +11°C° 0 mm 1 mps 755 mmHg 49%
    01:00 +11°C° 0 mm 1 mps 754 mmHg 48%
    02:00 +11°C° 0 mm 1 mps 754 mmHg 47%
    03:00 +10°C° 0 mm 1 mps 754 mmHg 46%
    04:00 +10°C° 0 mm 1 mps 754 mmHg 46%
    05:00 +10°C° 0 mm 1 mps 754 mmHg 45%
    06:00 +9°C° 0 mm 2 mps 754 mmHg 45%
    07:00 +10°C° 0 mm 2 mps 754 mmHg 42%
    08:00 +12°C° 0 mm 2 mps 754 mmHg 39%
    09:00 +13°C° 0 mm 2 mps 754 mmHg 36%
    10:00 +13°C° 0 mm 3 mps 754 mmHg 34%
    11:00 +14°C° 0 mm 4 mps 754 mmHg 33%
    12:00 +17°C° 0 mm 4 mps 754 mmHg 31%
    13:00 +16°C° 0 mm 5 mps 754 mmHg 32%
    14:00 +16°C° 0 mm 5 mps 754 mmHg 32%
    15:00 +17°C° 0 mm 5 mps 754 mmHg 32%
    16:00 +17°C° 0 mm 4 mps 755 mmHg 36%
    17:00 +16°C° 0 mm 3 mps 755 mmHg 39%
    18:00 +14°C° 0 mm 3 mps 756 mmHg 43%
    19:00 +14°C° 0 mm 2 mps 757 mmHg 45%
    20:00 +14°C° 0 mm 2 mps 757 mmHg 46%
    21:00 +13°C° 0 mm 1 mps 758 mmHg 48%
    22:00 +13°C° 0 mm 2 mps 758 mmHg 52%
    23:00 +12°C° 0 mm 2 mps 759 mmHg 57%

    27 February, Tuesday

    Time Temperature Precipitation Wind Pressure Humidity
    00:00 +10°C° 0 mm 2 mps 759 mmHg 61%
    01:00 +10°C° 0 mm 2 mps 759 mmHg 67%
    02:00 +9°C° 0 mm 2 mps 759 mmHg 73%
    03:00 +8°C° 0 mm 3 mps 760 mmHg 79%
    04:00 +8°C° 0 mm 2 mps 760 mmHg 80%
    05:00 +8°C° 0 mm 2 mps 760 mmHg 82%
    06:00 +8°C° 0 mm 2 mps 761 mmHg 83%
    07:00 +8°C° 0 mm 3 mps 761 mmHg 80%
    08:00 +9°C° 0 mm 3 mps 761 mmHg 78%
    09:00 +9°C° 0 mm 3 mps 762 mmHg 75%
    10:00 +10°C° 0 mm 4 mps 761 mmHg 72%
    11:00 +10°C° 0 mm 4 mps 761 mmHg 70%
    12:00 +11°C° 0 mm 4 mps 761 mmHg 67%
    13:00 +11°C° 0 mm 4 mps 761 mmHg 67%
    14:00 +11°C° 0 mm 4 mps 761 mmHg 66%
    15:00 +11°C° 0 mm 4 mps 761 mmHg 66%
    16:00 +11°C° 0 mm 3 mps 761 mmHg 68%
    17:00 +10°C° 0 mm 3 mps 761 mmHg 71%
    18:00 +10°C° 0 mm 2 mps 762 mmHg 74%
    19:00 +9°C° 0 mm 2 mps 762 mmHg 75%
    20:00 +9°C° 0 mm 2 mps 762 mmHg 77%
    21:00 +8°C° 0 mm 2 mps 763 mmHg 79%
    22:00 +8°C° 0 mm 2 mps 763 mmHg 80%
    23:00 +8°C° 0 mm 2 mps 763 mmHg 81%

    28 February, Wednesday

    Time Temperature Precipitation Wind Pressure Humidity
    00:00 +7°C° 0 mm 2 mps 763 mmHg 82%
    01:00 +8°C° 0 mm 1 mps 762 mmHg 83%
    02:00 +8°C° 0 mm 1 mps 762 mmHg 84%
    03:00 +7°C° 0 mm 1 mps 762 mmHg 86%
    04:00 +7°C° 0 mm 1 mps 762 mmHg 87%
    05:00 +6°C° 0 mm 0 mps 762 mmHg 87%
    06:00 +6°C° 0 mm 0 mps 763 mmHg 88%
    07:00 +8°C° 0 mm 1 mps 763 mmHg 84%
    08:00 +8°C° 0 mm 1 mps 763 mmHg 80%
    09:00 +9°C° 0 mm 1 mps 763 mmHg 76%
    10:00 +10°C° 0 mm 1 mps 762 mmHg 72%
    11:00 +11°C° 0 mm 1 mps 762 mmHg 67%
    12:00 +12°C° 0 mm 1 mps 761 mmHg 63%
    13:00 +13°C° 0 mm 1 mps 761 mmHg 60%
    14:00 +14°C° 0 mm 1 mps 761 mmHg 57%
    15:00 +14°C° 0 mm 1 mps 761 mmHg 54%
    16:00 +14°C° 0 mm 2 mps 761 mmHg 57%
    17:00 +13°C° 0 mm 2 mps 761 mmHg 60%
    18:00 +13°C° 0 mm 2 mps 762 mmHg 62%
    19:00 +12°C° 0 mm 2 mps 762 mmHg 65%
    20:00 +12°C° 0 mm 2 mps 762 mmHg 68%
    21:00 +10°C° 0 mm 2 mps 763 mmHg 71%
    22:00 +10°C° 0 mm 2 mps 763 mmHg 73%
    23:00 +9°C° 0 mm 2 mps 763 mmHg 76%
    Show more